DW9864 Weather Reports


Display with metric or nautical units.
time (UTC)temp
F
wind
direction
speed
MPH
gust
MPH
rain 1hr
in
rain 24hr
in
rain mn
in
humidity
%
barometer
mb
20260509051503 63 202 5.0 11.0 0.00 0.04 0.00 63 1010.0
20260509051017 63 200 6.0 12.0 0.00 0.04 0.00 63 1010.0
20260509050503 63 197 7.0 14.0 0.00 0.04 0.00 63 1010.1
20260509050017 63 194 8.0 14.0 0.00 0.04 0.00 63 1010.1
20260509045503 63 194 8.0 21.0 0.00 0.04 0.00 63 1010.2
20260509045003 63 201 8.0 21.0 0.00 0.04 0.00 63 1010.2
20260509044503 63 201 8.0 15.0 0.00 0.04 0.00 63 1010.2
20260509044003 63 199 7.0 14.0 0.00 0.04 0.00 64 1010.2
20260509043503 62 203 7.0 13.0 0.00 0.04 0.00 64 1010.1
20260509043017 62 202 6.0 12.0 0.00 0.04 0.00 64 1010.2
20260509042503 62 209 6.0 12.0 0.00 0.04 0.00 64 1010.2
20260509042004 62 213 6.0 12.0 0.00 0.04 0.00 64 1010.3
20260509041503 62 206 6.0 12.0 0.00 0.04 0.00 63 1010.2
20260509041017 62 207 6.0 12.0 0.00 0.04 0.00 64 1010.2
20260509040517 62 214 7.0 13.0 0.00 0.04 0.00 64 1010.4
20260509040017 62 209 6.0 13.0 0.00 0.04 0.00 63 1010.4
20260509035503 62 204 6.0 11.0 0.00 0.04 0.00 63 1010.3
20260509035003 62 206 6.0 12.0 0.00 0.04 0.00 63 1010.5
20260509034503 62 200 7.0 12.0 0.00 0.04 0.00 63 1010.5
20260509034003 63 200 6.0 12.0 0.00 0.04 0.00 63 1010.5
20260509033517 62 205 6.0 12.0 0.00 0.04 0.00 63 1010.5
20260509033003 63 199 7.0 12.0 0.00 0.04 0.00 63 1010.6
20260509032504 63 199 6.0 11.0 0.00 0.04 0.00 62 1010.6
20260509032003 63 201 6.0 11.0 0.00 0.04 0.00 62 1010.8
20260509031503 63 192 6.0 11.0 0.00 0.04 0.00 62 1010.7
20260509031003 63 186 5.0 11.0 0.00 0.04 0.00 63 1010.9
20260509030503 62 188 5.0 10.0 0.00 0.04 0.00 63 1010.8
20260509030003 63 196 5.0 10.0 0.00 0.04 0.00 63 1010.7
20260509025503 63 202 5.0 12.0 0.00 0.04 0.00 62 1010.8
20260509025003 63 194 6.0 12.0 0.00 0.04 0.00 63 1010.8
20260509024517 63 197 6.0 13.0 0.00 0.04 0.00 63 1010.7
20260509024017 63 205 6.0 13.0 0.00 0.04 0.00 63 1010.7
20260509023503 63 202 6.0 13.0 0.00 0.04 0.00 63 1010.7
20260509023003 63 204 6.0 12.0 0.00 0.04 0.00 63 1010.7
20260509022503 63 202 6.0 13.0 0.00 0.04 0.00 64 1010.7
20260509022003 63 204 7.0 13.0 0.00 0.04 0.00 64 1010.8
20260509021503 63 203 6.0 12.0 0.00 0.04 0.00 63 1010.7
20260509021003 63 190 6.0 11.0 0.00 0.04 0.00 64 1010.7
20260509020503 63 190 6.0 12.0 0.00 0.04 0.00 63 1010.6
20260509020003 63 205 6.0 12.0 0.00 0.04 0.00 63 1010.8
20260509015517 63 218 6.0 12.0 0.00 0.04 0.00 63 1010.7
20260509015003 63 204 5.0 10.0 0.00 0.04 0.00 63 1010.7
20260509014517 63 190 5.0 10.0 0.00 0.04 0.00 63 1010.8
20260509014003 63 184 5.0 10.0 0.00 0.04 0.00 63 1010.7
20260509013503 63 181 6.0 11.0 0.00 0.04 0.00 63 1010.8
20260509013003 63 193 5.0 12.0 0.00 0.04 0.00 64 1010.9
20260509012503 62 208 4.0 12.0 0.00 0.04 0.00 66 1010.9
20260509012003 62 215 3.0 8.0 0.00 0.04 0.00 68 1010.9
20260509011503 61 229 2.0 7.0 0.00 0.04 0.00 71 1010.8
20260509011003 60 249 1.0 7.0 0.00 0.04 0.00 75 1010.9
20260509010517 58 320 1.0 5.0 0.00 0.04 0.00 77 1010.8
20260509010003 58 326 1.0 5.0 0.00 0.04 0.00 79 1010.8
20260509005517 58 30 0.0 2.0 0.00 0.04 0.00 80 1010.9
20260509005003 58 35 1.0 3.0 0.00 0.04 0.00 81 1011.0
20260509004503 57 39 1.0 3.0 0.00 0.04 0.00 82 1011.0
20260509004003 58 56 1.0 4.0 0.00 0.04 0.00 82 1011.0
20260509003503 58 56 1.0 4.0 0.00 0.04 0.00 82 1011.0
20260509003003 58 58 1.0 4.0 0.00 0.04 0.00 81 1011.1
20260509002503 58 69 1.0 3.0 0.00 0.04 0.00 81 1011.1
20260509002003 58 77 1.0 3.0 0.00 0.04 0.00 81 1011.0
20260509001503 58 18 1.0 5.0 0.00 0.04 0.00 81 1011.2
20260509001003 59 327 1.0 5.0 0.00 0.04 0.00 80 1011.2
20260509000517 59 311 1.0 3.0 0.00 0.04 0.00 79 1011.1
20260509000004 59 311 1.0 3.0 0.00 0.04 0.00 78 1011.1
20260508235503 59 311 0.0 2.0 0.00 0.04 0.00 79 1011.2
20260508235003 60 310 0.0 3.0 0.00 0.04 0.00 79 1011.2
20260508234517 60 310 1.0 3.0 0.00 0.04 0.00 79 1011.2
20260508234003 60 315 2.0 5.0 0.00 0.04 0.00 78 1011.1
20260508233503 59 311 2.0 5.0 0.00 0.04 0.00 78 1011.2
20260508233003 59 304 2.0 5.0 0.00 0.04 0.00 80 1011.2
20260508232503 58 304 1.0 3.0 0.00 0.04 0.00 81 1011.4
20260508232003 58 304 1.0 2.0 0.00 0.04 0.00 82 1011.4
20260508231503 58 304 1.0 3.0 0.00 0.04 0.00 83 1011.4
20260508231003 58 304 1.0 3.0 0.00 0.04 0.00 83 1011.5
20260508230503 58 304 1.0 3.0 0.00 0.04 0.00 84 1011.4
20260508230003 58 304 1.0 3.0 0.00 0.04 0.00 85 1011.6
20260508225518 58 304 0.0 2.0 0.00 0.04 0.00 85 1011.6
20260508225003 58 304 0.0 3.0 0.00 0.04 0.00 85 1011.5
20260508224503 58 303 1.0 3.0 0.00 0.04 0.00 85 1011.5
20260508224017 58 303 1.0 3.0 0.00 0.04 0.00 85 1011.7
20260508223503 58 302 1.0 3.0 0.00 0.04 0.00 85 1011.8
20260508223003 58 301 0.0 1.0 0.00 0.04 0.00 85 1011.8
20260508222503 58 301 0.0 1.0 0.00 0.04 0.00 85 1011.9
20260508222003 58 301 0.0 1.0 0.00 0.04 0.00 85 1012.0
20260508221503 58 301 0.0 3.0 0.00 0.04 0.00 85 1012.2
20260508221003 58 300 1.0 3.0 0.00 0.04 0.00 85 1012.1
20260508220517 58 299 0.0 3.0 0.00 0.04 0.00 85 1012.2
20260508220003 58 298 0.0 2.0 0.00 0.04 0.00 85 1012.2
20260508215503 59 298 0.0 2.0 0.00 0.04 0.04 84 1012.2
20260508215003 59 0 0.0 0.0 0.00 0.04 0.04 85 1012.3
20260508214503 59 0 0.0 0.0 0.00 0.04 0.04 84 1012.4
20260508214003 59 0 0.0 0.0 0.00 0.04 0.04 84 1012.5
20260508213510 59 0 0.0 0.0 0.00 0.04 0.04 84 1012.4
20260508213017 59 0 0.0 0.0 0.00 0.04 0.04 83 1012.4
20260508212503 59 0 0.0 0.0 0.00 0.04 0.04 82 1012.5
20260508212003 60 0 0.0 0.0 0.00 0.04 0.04 82 1012.5
20260508211503 59 298 0.0 1.0 0.00 0.04 0.04 81 1012.5
20260508211003 59 305 0.0 5.0 0.00 0.04 0.04 81 1012.5
20260508210517 60 321 1.0 5.0 0.00 0.04 0.04 81 1012.6
20260508210003 60 345 1.0 2.0 0.00 0.04 0.04 81 1012.7
20260508205503 60 345 1.0 3.0 0.00 0.04 0.04 81 1012.6
20260508205003 60 345 1.0 3.0 0.00 0.04 0.04 80 1012.8
20260508204517 60 345 1.0 3.0 0.00 0.04 0.04 79 1012.6
20260508204017 60 341 1.0 4.0 0.00 0.04 0.04 78 1012.6
20260508203503 61 345 2.0 8.0 0.00 0.04 0.04 78 1012.6
20260508203003 61 348 2.0 8.0 0.00 0.04 0.04 77 1012.3
20260508202503 61 337 1.0 3.0 0.00 0.04 0.04 76 1012.3
20260508202003 61 308 1.0 3.0 0.00 0.04 0.04 76 1012.2
20260508201503 60 306 1.0 3.0 0.00 0.04 0.04 75 1012.0
20260508201003 60 305 1.0 3.0 0.00 0.04 0.04 75 1011.9
20260508200517 60 301 1.0 3.0 0.00 0.04 0.04 76 1011.5
20260508200017 61 301 1.0 3.0 0.00 0.04 0.04 77 1011.4
20260508195503 61 300 1.0 3.0 0.00 0.04 0.04 77 1011.3
20260508195003 61 296 1.0 5.0 0.00 0.04 0.04 76 1011.1
20260508194503 61 310 2.0 5.0 0.00 0.04 0.04 75 1011.0
20260508194003 61 304 2.0 4.0 0.00 0.04 0.04 75 1011.0
20260508193503 61 257 2.0 7.0 0.00 0.04 0.04 75 1010.9
20260508193003 61 253 3.0 7.0 0.00 0.04 0.04 74 1010.9
20260508192503 61 249 3.0 6.0 0.00 0.04 0.04 73 1010.7
20260508192003 61 228 2.0 6.0 0.00 0.04 0.04 74 1010.8
20260508191003 60 304 1.0 3.0 0.00 0.04 0.04 77 1010.7
20260508190503 60 304 1.0 3.0 0.00 0.04 0.04 78 1010.8
20260508190003 60 266 2.0 5.0 0.00 0.04 0.04 78 1010.7
20260508185517 60 256 2.0 5.0 0.00 0.04 0.04 78 1010.7
20260508185003 59 275 2.0 7.0 0.00 0.04 0.04 79 1010.7
20260508184503 59 288 3.0 8.0 0.00 0.04 0.04 79 1010.7
20260508184004 59 312 3.0 8.0 0.00 0.04 0.04 79 1010.7
20260508183503 59 320 2.0 5.0 0.00 0.04 0.04 80 1010.8
20260508183004 59 313 2.0 4.0 0.01 0.04 0.04 80 1010.8
20260508182503 59 303 2.0 5.0 0.02 0.04 0.04 80 1010.7
20260508182003 59 296 2.0 5.0 0.03 0.04 0.04 79 1010.8
20260508181503 59 290 1.0 4.0 0.04 0.04 0.04 79 1010.7
20260508181003 59 331 2.0 7.0 0.04 0.04 0.04 79 1010.7
20260508180503 59 311 2.0 7.0 0.04 0.04 0.04 79 1010.6
20260508180003 59 281 2.0 6.0 0.04 0.04 0.04 78 1010.7
20260508175503 59 268 3.0 10.0 0.04 0.04 0.04 78 1010.7
20260508175003 58 280 4.0 10.0 0.04 0.04 0.04 78 1010.6
20260508174503 58 301 5.0 13.0 0.04 0.04 0.04 78 1010.8
20260508174017 58 299 6.0 13.0 0.04 0.04 0.04 77 1010.8
20260508173503 58 262 6.0 14.0 0.04 0.04 0.04 79 1010.8
20260508173003 58 211 7.0 14.0 0.03 0.03 0.03 80 1011.2
20260508172504 58 195 9.0 17.0 0.02 0.02 0.02 79 1011.6
20260508172017 58 191 10.0 23.0 0.01 0.01 0.01 78 1011.7
20260508171503 59 182 9.0 23.0 0.00 0.00 0.00 77 1011.8
20260508171003 59 176 8.0 18.0 0.00 0.00 0.00 76 1011.5
20260508170503 60 192 8.0 18.0 0.00 0.00 0.00 73 1011.5
20260508170003 62 191 8.0 21.0 0.00 0.00 0.00 70 1011.5
20260508165517 63 183 8.0 21.0 0.00 0.00 0.00 64 1010.9
20260508165004 67 246 5.0 19.0 0.00 0.00 0.00 55 1011.3
20260508164517 70 325 3.0 11.0 0.00 0.00 0.00 48 1010.9
20260508164003 70 321 1.0 5.0 0.00 0.00 0.00 47 1010.4
20260508163503 70 301 1.0 3.0 0.00 0.00 0.00 47 1010.2
20260508163003 71 300 1.0 3.0 0.00 0.00 0.00 47 1010.0
20260508162503 71 293 1.0 3.0 0.00 0.00 0.00 47 1009.9
20260508162004 70 268 1.0 4.0 0.00 0.00 0.00 47 1009.7
20260508161517 70 262 2.0 4.0 0.00 0.00 0.00 47 1009.5
20260508161003 70 214 2.0 6.0 0.00 0.00 0.00 48 1009.6
20260508160503 71 163 3.0 10.0 0.00 0.00 0.00 47 1009.5
20260508160003 71 171 5.0 10.0 0.00 0.00 0.00 46 1009.5
20260508155503 71 183 6.0 11.0 0.00 0.00 0.00 45 1009.6
20260508155003 71 174 6.0 13.0 0.00 0.00 0.00 45 1009.7
20260508154517 71 166 6.0 13.0 0.00 0.00 0.00 45 1009.8
20260508154017 71 176 5.0 12.0 0.00 0.00 0.00 46 1009.6
20260508153503 71 170 4.0 11.0 0.00 0.00 0.00 47 1009.6
20260508153003 71 173 4.0 9.0 0.00 0.00 0.00 47 1009.7
20260508152503 70 170 4.0 10.0 0.00 0.00 0.00 47 1009.7
20260508152003 70 166 5.0 10.0 0.00 0.00 0.00 47 1009.8
20260508151504 70 163 6.0 12.0 0.00 0.00 0.00 47 1009.8
20260508151003 70 172 5.0 12.0 0.00 0.00 0.00 47 1009.9
20260508150503 70 178 4.0 10.0 0.00 0.00 0.00 47 1009.8
20260508150003 70 179 4.0 10.0 0.00 0.00 0.00 47 1009.9
20260508145517 70 171 4.0 8.0 0.00 0.00 0.00 48 1010.0
20260508145003 70 145 3.0 7.0 0.00 0.00 0.00 47 1010.1
20260508144503 70 155 3.0 8.0 0.00 0.00 0.00 47 1010.1
20260508144003 70 164 3.0 8.0 0.00 0.00 0.00 47 1010.1
20260508143503 70 146 3.0 7.0 0.00 0.00 0.00 46 1010.1
20260508143003 71 124 2.0 7.0 0.00 0.00 0.00 45 1010.2
20260508142503 70 129 3.0 11.0 0.00 0.00 0.00 47 1010.2
20260508142003 70 149 5.0 11.0 0.00 0.00 0.00 46 1010.2
20260508141503 70 161 5.0 13.0 0.00 0.00 0.00 46 1010.2
20260508141004 70 166 6.0 17.0 0.00 0.00 0.00 46 1010.3
20260508140503 70 173 6.0 17.0 0.00 0.00 0.00 45 1010.3
20260508140003 70 178 4.0 13.0 0.00 0.00 0.00 48 1010.3
20260508135503 70 173 4.0 7.0 0.00 0.00 0.00 50 1010.3
20260508135017 69 161 5.0 8.0 0.00 0.00 0.00 49 1010.4
20260508134503 69 152 4.0 8.0 0.00 0.00 0.00 49 1010.4
20260508134003 69 178 4.0 8.0 0.00 0.00 0.00 49 1010.4
20260508133503 69 194 4.0 10.0 0.00 0.00 0.00 50 1010.4
20260508133003 69 194 5.0 10.0 0.00 0.00 0.00 50 1010.4
20260508132503 69 193 5.0 9.0 0.00 0.00 0.00 50 1010.4
20260508132003 69 184 5.0 13.0 0.00 0.00 0.00 49 1010.4
20260508131503 69 177 6.0 14.0 0.00 0.00 0.00 49 1010.5
20260508131017 69 177 5.0 14.0 0.00 0.00 0.00 49 1010.4
20260508130518 69 186 5.0 12.0 0.00 0.00 0.00 49 1010.4
20260508130003 68 181 6.0 12.0 0.00 0.00 0.00 50 1010.5
20260508125503 68 163 7.0 13.0 0.00 0.00 0.00 49 1010.5
20260508125003 68 165 7.0 15.0 0.00 0.00 0.00 49 1010.5
20260508124503 68 178 7.0 15.0 0.00 0.00 0.00 49 1010.5
20260508124017 69 180 7.0 14.0 0.00 0.00 0.00 49 1010.6
20260508123503 69 179 7.0 13.0 0.00 0.00 0.00 48 1010.5
20260508123017 69 184 6.0 13.0 0.00 0.00 0.00 49 1010.4
20260508122503 69 169 8.0 17.0 0.00 0.00 0.00 50 1010.4
20260508122017 69 171 8.0 17.0 0.00 0.00 0.00 49 1010.4
20260508121503 69 180 7.0 16.0 0.00 0.00 0.00 49 1010.5
20260508121014 69 180 7.0 15.0 0.00 0.00 0.00 50 1010.4
20260508120503 69 182 8.0 16.0 0.00 0.00 0.00 50 1010.4
20260508120004 69 192 8.0 16.0 0.00 0.00 0.00 50 1010.3
20260508115503 69 195 7.0 15.0 0.00 0.00 0.00 51 1010.3
20260508115003 69 183 7.0 14.0 0.00 0.00 0.00 51 1010.3
20260508114503 69 184 7.0 15.0 0.00 0.00 0.00 50 1010.2
20260508114003 69 179 8.0 17.0 0.00 0.00 0.00 50 1010.3
20260508113503 69 181 8.0 17.0 0.00 0.00 0.00 51 1010.3
20260508113004 69 180 7.0 17.0 0.00 0.00 0.00 50 1010.2
20260508112503 69 168 6.0 11.0 0.00 0.00 0.00 53 1010.3
20260508112003 69 167 5.0 11.0 0.00 0.00 0.00 52 1010.2
20260508111517 69 180 4.0 10.0 0.00 0.00 0.00 52 1010.3
20260508111003 69 176 5.0 13.0 0.00 0.00 0.00 53 1010.2
20260508110503 68 159 5.0 13.0 0.00 0.00 0.00 51 1010.3
20260508110003 69 164 3.0 9.0 0.00 0.00 0.00 53 1010.2
20260508105504 68 190 4.0 12.0 0.00 0.00 0.00 53 1010.3
20260508105003 68 195 5.0 12.0 0.00 0.00 0.00 53 1010.4
20260508104503 68 177 4.0 9.0 0.00 0.00 0.00 52 1010.4
20260508104017 68 175 5.0 10.0 0.00 0.00 0.00 53 1010.3
20260508103503 68 185 6.0 12.0 0.00 0.00 0.00 52 1010.4
20260508103003 68 190 6.0 12.0 0.00 0.00 0.00 52 1010.4
20260508102517 68 189 6.0 12.0 0.00 0.00 0.00 51 1010.4
20260508102017 68 172 5.0 12.0 0.00 0.00 0.00 52 1010.5
20260508101503 68 182 5.0 10.0 0.00 0.00 0.00 54 1010.4
20260508101003 67 182 6.0 11.0 0.00 0.00 0.00 54 1010.6
20260508100503 67 192 7.0 15.0 0.00 0.00 0.00 54 1010.6
20260508100003 67 198 7.0 15.0 0.00 0.00 0.00 54 1010.7
20260508095503 67 183 8.0 17.0 0.00 0.00 0.00 56 1010.9
20260508095004 66 179 9.0 17.0 0.00 0.00 0.00 56 1010.8
20260508094503 66 184 10.0 23.0 0.00 0.00 0.00 55 1010.8
20260508094003 66 184 11.0 23.0 0.00 0.00 0.00 56 1010.8
20260508093517 66 184 11.0 20.0 0.00 0.00 0.00 56 1010.9
20260508093017 66 187 9.0 17.0 0.00 0.00 0.00 57 1010.9
20260508092503 66 179 9.0 17.0 0.00 0.00 0.00 57 1011.0
20260508092017 66 175 10.0 18.0 0.00 0.00 0.00 57 1011.0
20260508091504 66 183 11.0 24.0 0.00 0.00 0.00 57 1011.2
20260508091003 66 188 10.0 24.0 0.00 0.00 0.00 57 1011.1
20260508090503 66 191 9.0 16.0 0.00 0.00 0.00 58 1010.8
20260508090004 66 192 8.0 15.0 0.00 0.00 0.00 58 1010.8
20260508085503 65 185 9.0 16.0 0.00 0.00 0.00 59 1010.9
20260508085003 65 183 8.0 16.0 0.00 0.00 0.00 58 1010.9
20260508084503 65 177 6.0 15.0 0.00 0.00 0.00 59 1010.9
20260508084017 65 176 8.0 16.0 0.00 0.00 0.00 60 1010.9
20260508083503 65 182 8.0 16.0 0.00 0.00 0.00 59 1011.0
20260508083003 65 192 8.0 15.0 0.00 0.00 0.00 59 1011.1
20260508082503 65 195 8.0 15.0 0.00 0.00 0.00 59 1011.1
20260508082003 65 194 8.0 15.0 0.00 0.00 0.00 60 1011.1
20260508081503 65 202 9.0 15.0 0.00 0.00 0.00 59 1011.1
20260508081017 65 201 9.0 16.0 0.00 0.00 0.00 59 1011.0
20260508080503 65 194 8.0 17.0 0.00 0.00 0.00 59 1010.9
20260508080003 65 197 9.0 18.0 0.00 0.00 0.00 60 1010.8
20260508075517 64 196 9.0 18.0 0.00 0.00 0.00 59 1010.7
20260508075003 64 189 9.0 18.0 0.00 0.00 0.00 60 1010.7
20260508074503 64 188 10.0 18.0 0.00 0.00 0.00 60 1010.8
20260508074003 64 188 10.0 20.0 0.00 0.00 0.00 60 1010.7
20260508073503 64 190 9.0 20.0 0.00 0.00 0.00 60 1010.8
20260508073003 64 189 10.0 22.0 0.00 0.00 0.00 60 1010.8
20260508072503 64 190 10.0 22.0 0.00 0.00 0.00 60 1010.9
20260508072003 64 192 9.0 20.0 0.00 0.00 0.00 60 1010.8
20260508071503 63 196 9.0 20.0 0.00 0.00 0.00 61 1010.7
20260508071003 63 204 8.0 18.0 0.00 0.00 0.00 61 1010.7
20260508070503 63 201 8.0 16.0 0.00 0.00 0.00 61 1010.7
20260508070003 63 194 7.0 12.0 0.00 0.00 0.00 61 1010.9
20260508065503 63 178 7.0 14.0 0.00 0.00 0.00 61 1010.7
20260508065003 63 190 7.0 14.0 0.00 0.00 0.00 61 1010.6
20260508064503 62 205 7.0 14.0 0.00 0.00 0.00 62 1010.6
20260508064003 62 195 7.0 14.0 0.00 0.00 0.00 61 1010.7
20260508063503 62 194 7.0 14.0 0.00 0.00 0.00 61 1010.7
20260508063017 62 199 7.0 13.0 0.00 0.00 0.00 62 1010.5
20260508062517 62 197 8.0 15.0 0.00 0.00 0.00 62 1010.5
20260508062017 62 192 7.0 15.0 0.00 0.00 0.00 62 1010.5
20260508061503 62 174 6.0 11.0 0.00 0.00 0.00 62 1010.4
20260508061003 62 173 6.0 11.0 0.00 0.00 0.00 62 1010.4
20260508060503 62 183 6.0 13.0 0.00 0.00 0.00 62 1010.4
20260508060003 61 196 5.0 13.0 0.00 0.00 0.00 62 1010.5
20260508055503 61 200 5.0 10.0 0.00 0.00 0.00 63 1010.3
20260508055017 61 189 4.0 10.0 0.00 0.00 0.00 62 1010.4
20260508054503 61 211 4.0 10.0 0.00 0.00 0.00 62 1010.3
20260508054017 60 225 4.0 8.0 0.00 0.00 0.00 63 1010.4
20260508053517 60 198 3.0 6.0 0.00 0.00 0.00 65 1010.4
20260508053003 59 171 2.0 6.0 0.00 0.00 0.00 66 1010.3
20260508052517 59 158 1.0 6.0 0.00 0.00 0.00 66 1010.3
20260508052003 59 139 1.0 4.0 0.00 0.00 0.00 66 1010.2